Location: Caltech
(34.1382°N, 118.1253°W)
Time: 12:00:48
(UTC-07:00)

Iridium 12 - Visible Passes

Search period start: 24 June 2017 00:00
Search period end: 04 July 2017 00:00
Orbit: 776 x 779 km, 86.4° (Epoch: 23 June)

Date Brightness Start Highest point End Pass type
(mag) Time Alt. Az. Time Alt. Az. Time Alt. Az.
24 Jun 8.2 04:51:05 10° SE 04:54:45 20° E 04:58:25 10° NE visible
27 Jun 7.6 04:50:17 10° SE 04:54:42 29° E 04:59:09 10° NNE visible
28 Jun 8.3 04:18:35 10° ESE 04:21:28 15° E 04:24:21 10° NE visible
30 Jun 6.8 04:49:49 10° SSE 04:54:42 43° E 04:59:37 10° NNE visible
01 Jul 7.9 04:17:26 10° SE 04:21:24 22° E 04:25:22 10° NNE visible
02 Jul 8.4 03:46:40 10° E 03:48:13 11° ENE 03:49:46 10° ENE visible
03 Jul 6.0 04:49:37 10° S 04:54:45 65° E 04:59:55 10° N visible
